Fes-Sais, Morocco

2:55 AM WET on May 22, 2018 (GMT +0000)
Fes-Sais

Weather History for GMFF - October, 2013

Change the Weather History Date:

Sunday, October 20, 2013

  Actual Average Record
Temperature  
Mean Temperature 66 °F -  
Max Temperature 79 °F 69 °F 99 °F (2014)
Min Temperature 53 °F 48 °F 37 °F (1998)
Cooling Degree Days 1    
Growing Degree Days 16 (Base 50)    
Moisture  
Dew Point 53 °F    
Average Humidity 63    
Maximum Humidity 88    
Minimum Humidity 38    
Precipitation  
Precipitation 0.00 in 0.11 in - ()
Sea Level Pressure  
Sea Level Pressure 30.12 in    
Wind  
Wind Speed 4 mph ()    
Max Wind Speed 9 mph    
Max Gust Speed -    
Visibility 6.4 miles    
Events      
Averages and records for this station are not official NWS values.
T = Trace of Precipitation, MM = Missing Value Source: Averaged Metar Reports

Daily Weather History Graph

Daily Weather History Graph

Search for Another Location

Airport or City:

Astronomy

Oct. 20, 2013 Rise Set
Actual Time 7:28 AM WEST 6:39 PM WEST
Civil Twilight 7:03 AM WEST 7:05 PM WEST
Nautical Twilight 6:34 AM WEST 7:34 PM WEST
Astronomical Twilight 6:05 AM WEST 8:03 PM WEST
Moon 7:43 PM WEST (10/20) 8:48 AM WEST (10/20)
Length of Visible Light 12h 01m
Length of Day
11h 10m
Full, 98% of the Moon is Illuminated
Oct 20
Full
Oct 27
Last Quarter
Nov 3
New
Nov 10
First Quarter
Nov 17
Full

Hourly Weather History & Observations

Time (WEST) Temp. Dew Point Humidity Pressure Visibility Wind Dir Wind Speed Gust Speed Precip Events Conditions
12:00 AM 62.6 °F 51.8 °F 68% 30.18 in - South 4.6 mph - N/A   Clear
2:00 AM 59.0 °F 50.0 °F 72% 30.18 in - South 4.6 mph - N/A   Clear
3:00 AM 57.2 °F 48.2 °F 72% 30.15 in - South 4.6 mph - N/A   Clear
4:00 AM 57 °F 50 °F 69% 30.12 in 6 mi SE 3.5 mph - -   Clear
4:00 AM 57.2 °F 50.0 °F 77% 30.12 in - SE 3.5 mph - N/A   Clear
5:00 AM 55.4 °F 48.2 °F 77% 30.15 in - South 4.6 mph - N/A   Clear
6:00 AM 53.6 °F 48.2 °F 82% 33.08 in - SSE 4.6 mph - N/A   Clear
7:30 AM 53.6 °F 48.2 °F 82% 30.15 in - South 4.6 mph - N/A   Clear
8:00 AM 55.4 °F 50.0 °F 82% 30.15 in - South 4.6 mph - N/A   Clear
9:00 AM 60.8 °F 57.2 °F 88% 30.18 in 5.0 mi South 4.6 mph - N/A   Scattered Clouds
10:00 AM 68 °F 58 °F 63% 30.14 in 6 mi Calm Calm - -   Scattered Clouds
10:00 AM 68.0 °F 59.0 °F 73% 30.18 in 6.2 mi Calm Calm - N/A   Partly Cloudy
11:00 AM 69.8 °F 55.4 °F 60% 30.18 in 6.2 mi NNE 4.6 mph - N/A   Partly Cloudy
12:00 PM 73.4 °F 53.6 °F 50% 30.18 in 6.2 mi North 4.6 mph - N/A   Partly Cloudy
1:00 PM 75 °F 54 °F 38% 30.09 in 12 mi NNW 4.6 mph - -   Scattered Clouds
1:00 PM 75.2 °F 53.6 °F 47% 30.18 in 6.2 mi NNW 4.6 mph - N/A   Partly Cloudy
2:00 PM 77.0 °F 53.6 °F 44% 30.12 in 6.2 mi NNE 4.6 mph - N/A   Partly Cloudy
3:00 PM 78.8 °F 53.6 °F 42% 30.12 in 6.2 mi West 5.8 mph - N/A   Scattered Clouds
4:00 PM 78.8 °F 55.4 °F 44% 30.12 in 6.2 mi WNW 9.2 mph - N/A   Scattered Clouds
5:00 PM 78.8 °F 53.6 °F 42% 30.12 in 6.2 mi West 6.9 mph - N/A   Scattered Clouds
6:00 PM 75.2 °F 53.6 °F 47% 30.12 in 6.2 mi WNW 4.6 mph - N/A   Scattered Clouds
7:00 PM 71 °F 55 °F 47% 30.05 in 6 mi WNW 4.6 mph - -   Scattered Clouds
7:00 PM 71.6 °F 55.4 °F 57% 30.12 in 6.2 mi WNW 4.6 mph - N/A   Scattered Clouds
8:00 PM 68.0 °F 55.4 °F 64% 30.12 in 6.2 mi West 4.6 mph - N/A   Scattered Clouds
9:00 PM 66.2 °F 55.4 °F 68% 30.15 in - South 4.6 mph - N/A   Clear
10:00 PM 67 °F - % 29.46 in 6 mi SW 5.8 mph - -  
10:00 PM 66.2 °F 55.4 °F 68% 30.15 in - South 4.6 mph - N/A   Clear
11:00 PM 62.6 °F 53.6 °F 72% 30.15 in - South 4.6 mph - N/A   Clear